Location: Antoign�
(47.0844°N, 0.1131°W)
Time: 07:17:57
(UTC+00:00)

Resurs 01 Rocket - Pass Details

Date: 03 March 2021
Orbit: 635 x 643 km, 98.0° (Epoch: 11 April)

Event Time Altitude Azimuth Distance (km) Brightness Sun altitude
Exits shadow 20:50:14 31° 332° (NNW) 1,113 3.2 -30.9°
Drops below altitude 10° 20:52:39 10° 341° (NNW) 2,034 4.7 -31.2°
Sets 20:54:53 0° 345° (NNW) 2,948 5.6 -31.6°
